[[{"header":{"parameterUnit":"m.s-1","parameterCategory":1,"la1":30.2991,"la2":30.254,"lo1":-89.0895,"lo2":-89.0444,"dy":0.0017,"dx":0.0017,"nx":28,"ny":28,"refTime":"2024-07-03T21:00:00:Z","depth":0,"parameterNumber":2,"parameterNumberName":"U-component_of_WINDS"},"data":[0,0,0,0,0,0,0,0,0,0,0,0,0,0,0,0,0,0,0,0,0,0,0,0,0,0,0,0,0,0,0,0,0,0,0,0,0,0,0,0,0,0,0,0,0,0,0,0,0,0,0,0,0,0,0,0,0,0,-0.5141,-0.5141,0,-0.5155,-0.5155,-0.5156,-0.5174,-0.5174,-0.5174,-0.5175,-0.5188,-0.5188,-0.5188,0,0,0,0,0,0,0,0,0,0,0,0,0,-0.5129,-0.5129,-0.5141,-0.5141,-0.5141,-0.5155,-0.5155,-0.5156,-0.5174,-0.5174,-0.5175,-0.5175,-0.5188,-0.5188,-0.5188,0,0,0,0,0,0,0,0,0,0,0,0,0,-0.5138,-0.5129,-0.5141,-0.5152,-0.5153,-0.5155,-0.5155,-0.5156,-0.5174,-0.5174,-0.5175,-0.5175,-0.5188,-0.5188,-0.5188,-0.518,0,0,-0.5189,-0.5189,0,0,0,0,0,0,0,0,-0.5137,-0.5138,-0.515,-0.5151,-0.5153,-0.5163,-0.5156,-0.5164,-0.5174,-0.5166,-0.5175,-0.5175,-0.5179,-0.518,-0.5182,-0.5181,-0.5181,-0.5189,-0.5189,-0.5189,-0.5189,0,0,0,0,0,0,0,-0.5137,-0.5138,-0.5147,-0.515,-0.5152,-0.5156,-0.5158,-0.5158,-0.517,-0.5167,-0.5168,-0.5169,-0.518,-0.5182,-0.5182,-0.5182,-0.5189,-0.5189,-0.5189,-0.5189,-0.5175,-0.5174,0,0,0,0,0,0,-0.5134,-0.5137,-0.5146,-0.5147,-0.5146,-0.5156,-0.5158,-0.5159,-0.517,-0.5172,-0.5169,-0.517,-0.5181,-0.5182,-0.5183,-0.5174,-0.5189,-0.5189,-0.5189,-0.5175,-0.5175,-0.5174,0,0,0,0,0,0,-0.5134,-0.5135,-0.5146,-0.5142,-0.5144,-0.5156,-0.5157,-0.5159,-0.5161,-0.5172,-0.5174,-0.5169,-0.5182,-0.5183,-0.5181,-0.5175,-0.5189,-0.5189,-0.5176,-0.5175,-0.5174,-0.5156,0,0,0,0,0,0,-0.5134,-0.5135,-0.5132,-0.5142,-0.5144,-0.5143,-0.5157,-0.5159,-0.5161,-0.5163,-0.5172,-0.5174,-0.5182,-0.5181,-0.5181,-0.5175,-0.5189,-0.5176,-0.5175,-0.5174,-0.5158,-0.5155,-0.5153,0,0,0,0,0,-0.5133,-0.5126,-0.5132,-0.5133,-0.5141,-0.5143,-0.5144,-0.5154,-0.5161,-0.5158,-0.5165,-0.5174,-0.5176,-0.518,-0.5181,-0.5175,-0.5177,-0.5176,-0.5175,-0.5159,-0.5156,-0.5153,0,0,0,0,0,0,-0.5114,-0.5128,-0.5134,-0.513,-0.5135,-0.5146,-0.5143,-0.5151,-0.5154,-0.5155,-0.5167,-0.5169,-0.5166,-0.517,-0.5175,-0.5168,-0.5177,-0.5176,-0.5165,-0.5162,-0.516,-0.5159,-0.5189,0,0,0,0,0,-0.511,-0.511,-0.5122,-0.5117,-0.512,-0.5131,-0.5132,-0.5139,-0.5145,-0.5147,-0.5154,-0.5159,-0.5161,-0.5162,-0.5164,-0.5158,-0.5161,-0.5155,-0.5153,-0.5151,-0.515,-0.5147,-0.5145,-0.5171,-0.5171,-0.5171,0,0,-0.51,-0.5107,-0.5107,-0.5114,-0.5119,-0.5119,-0.5132,-0.5132,-0.5133,-0.5147,-0.5146,-0.5151,-0.5158,-0.5154,-0.5152,-0.5157,-0.5143,-0.5149,-0.5148,-0.5148,-0.5146,-0.5143,-0.5141,-0.517,-0.517,-0.517,0,0,-0.5083,-0.5088,-0.5085,-0.509,-0.5098,-0.5105,-0.5104,-0.5114,-0.5118,-0.5117,-0.5129,-0.5129,-0.5132,-0.5136,-0.5139,-0.5124,-0.5132,-0.5124,-0.5112,-0.511,-0.5108,-0.5106,-0.51,-0.5098,-0.5123,-0.5123,-0.5123,0,-0.507,-0.5071,-0.5083,-0.5082,-0.5085,-0.5098,-0.5095,-0.5099,-0.5107,-0.5108,-0.5114,-0.5118,-0.5124,-0.5121,-0.5117,-0.5119,-0.5118,-0.5123,-0.5107,-0.5105,-0.5104,-0.5099,-0.5097,-0.5122,-0.5122,-0.5122,-0.5122,0,-0.5055,-0.5056,-0.5052,-0.506,-0.5062,-0.506,-0.5071,-0.5072,-0.5079,-0.5086,-0.5085,-0.5092,-0.5096,-0.5096,-0.5103,-0.5095,-0.5097,-0.5105,-0.5115,-0.51,-0.5096,-0.5094,-0.5121,-0.5121,-0.5121,-0.5121,0,0,-0.5025,-0.504,-0.5038,-0.5042,-0.5052,-0.5053,-0.5051,-0.5056,-0.5056,-0.5061,-0.506,-0.5063,-0.507,-0.5073,-0.508,-0.5078,-0.5066,-0.5086,-0.5086,-0.5082,-0.5057,-0.5051,-0.5049,-0.5071,-0.5071,-0.5071,-0.5056,0,-0.501,-0.5009,-0.5019,-0.5015,-0.5016,-0.503,-0.5029,-0.5034,-0.5041,-0.5042,-0.505,-0.5051,-0.506,-0.5062,-0.506,-0.5068,-0.5061,-0.5069,-0.507,-0.507,-0.5068,-0.5046,-0.504,-0.5026,-0.5055,-0.5054,-0.5054,0,-0.4992,-0.4996,-0.4992,-0.5002,-0.5003,-0.5002,-0.5007,-0.5009,-0.5015,-0.502,-0.5024,-0.5033,-0.5032,-0.5041,-0.5041,-0.5046,-0.5047,-0.5051,-0.5051,-0.5051,-0.5061,-0.5046,-0.5022,-0.502,-0.5051,-0.5052,-0.5052,0,-0.4971,-0.4976,-0.4974,-0.4977,-0.4989,-0.4988,-0.4992,-0.5,-0.5002,-0.5006,-0.5008,-0.5012,-0.5014,-0.5017,-0.5026,-0.5032,-0.5024,-0.5035,-0.5028,-0.5028,-0.5026,-0.5026,-0.5001,-0.5027,-0.5027,-0.5027,-0.5027,0,-0.4952,-0.4949,-0.4965,-0.4964,-0.4961,-0.4973,-0.497,-0.4976,-0.4983,-0.4983,-0.4995,-0.4995,-0.5008,-0.5009,-0.5017,-0.5015,-0.5016,-0.502,-0.5022,-0.5018,-0.5018,-0.5019,-0.502,-0.5026,-0.5026,-0.5027,-0.5027,0,-0.4928,-0.4938,-0.4938,-0.4949,-0.4952,-0.4949,-0.4959,-0.4959,-0.4966,-0.4966,-0.4967,-0.4978,-0.4981,-0.4991,-0.4995,-0.5001,-0.4996,-0.5,-0.4994,-0.4995,-0.4988,-0.4989,-0.4964,-0.4961,-0.4988,-0.4988,-0.4988,0,-0.4915,-0.4914,-0.4925,-0.4926,-0.4931,-0.4932,-0.4935,-0.4947,-0.4949,-0.4957,-0.4955,-0.4958,-0.4962,-0.4965,-0.4973,-0.4977,-0.4981,-0.4972,-0.4982,-0.4979,-0.4981,-0.4981,-0.498,-0.497,-0.4969,-0.4969,-0.4969,0,-0.4892,-0.4897,-0.49,-0.4905,-0.4908,-0.4912,-0.4917,-0.4918,-0.4931,-0.4932,-0.4935,-0.4938,-0.4943,-0.4946,-0.4951,-0.4956,-0.4964,-0.4966,-0.4965,-0.4961,-0.4958,-0.4959,-0.4988,-0.4966,-0.4967,-0.4967,-0.4967,-0.4967,-0.4873,-0.4872,-0.488,-0.4883,-0.4889,-0.4893,-0.4893,-0.4901,-0.4903,-0.4909,-0.4916,-0.4917,-0.4924,-0.4932,-0.4936,-0.4938,-0.4943,-0.4941,-0.494,-0.494,-0.4938,-0.4958,-0.4939,-0.4939,-0.4939,-0.4939,-0.4939,0,-0.485,-0.4856,-0.4859,-0.4866,-0.4868,-0.4877,-0.4883,-0.4884,-0.4886,-0.4892,-0.4895,-0.4898,-0.4902,-0.4911,-0.4915,-0.4914,-0.4918,-0.4915,-0.4915,-0.4916,-0.4933,-0.4934,-0.4911,-0.4911,-0.4911,-0.4911,-0.4911,-0.4911,-0.4839,-0.4838,-0.4844,-0.4846,-0.4852,-0.4854,-0.4856,-0.4861,-0.4866,-0.4869,-0.4872,-0.4878,-0.4885,-0.489,-0.4893,-0.4895,-0.4896,-0.4891,-0.4895,-0.4912,-0.4914,-0.4917,-0.4918,-0.4892,-0.4892,-0.4877,-0.4877,-0.4877]},{"header":{"parameterUnit":"m.s-1","parameterCategory":1,"la1":30.2991,"la2":30.254,"lo1":-89.0895,"lo2":-89.0444,"dy":0.0017,"dx":0.0017,"nx":28,"ny":28,"refTime":"2024-07-03T21:00:00:Z","depth":0,"parameterNumber":3,"parameterNumberName":"V-component_of_WINDS"},"data":[0,0,0,0,0,0,0,0,0,0,0,0,0,0,0,0,0,0,0,0,0,0,0,0,0,0,0,0,0,0,0,0,0,0,0,0,0,0,0,0,0,0,0,0,0,0,0,0,0,0,0,0,0,0,0,0,0,0,4.0583,4.0583,0,4.0593,4.0593,4.0593,4.0546,4.0545,4.0544,4.0542,4.055,4.0551,4.0553,0,0,0,0,0,0,0,0,0,0,0,0,0,4.0523,4.0524,4.0583,4.0583,4.0583,4.0592,4.0593,4.0593,4.0547,4.0545,4.0543,4.0542,4.055,4.0551,4.0553,0,0,0,0,0,0,0,0,0,0,0,0,0,4.0542,4.0525,4.0583,4.0561,4.056,4.0592,4.0593,4.0593,4.0547,4.0545,4.0543,4.0541,4.0549,4.0551,4.0553,4.0607,0,0,4.056,4.0561,0,0,0,0,0,0,0,0,4.0541,4.0545,4.0564,4.0563,4.0561,4.0566,4.0574,4.0597,4.0547,4.0552,4.0542,4.054,4.0557,4.0558,4.0564,4.0607,4.0607,4.056,4.0561,4.0562,4.0563,0,0,0,0,0,0,0,4.054,4.0544,4.0587,4.0565,4.0563,4.0551,4.0551,4.0578,4.0565,4.0551,4.0548,4.055,4.0556,4.0562,4.0564,4.0608,4.056,4.0562,4.0563,4.0564,4.0695,4.0697,0,0,0,0,0,0,4.0542,4.0543,4.0586,4.0587,4.0546,4.0553,4.0554,4.0566,4.0565,4.0563,4.0551,4.0547,4.056,4.0562,4.0564,4.0627,4.0562,4.0564,4.0566,4.0693,4.0695,4.0698,0,0,0,0,0,0,4.0541,4.0546,4.0586,4.0564,4.0568,4.0557,4.0571,4.0568,4.0575,4.0565,4.0562,4.0561,4.0558,4.0561,4.0597,4.0627,4.0565,4.0567,4.069,4.0694,4.0697,4.0753,0,0,0,0,0,0,4.0539,4.0546,4.0567,4.0565,4.057,4.0619,4.0573,4.0569,4.0579,4.0574,4.0573,4.0571,4.0557,4.0594,4.0599,4.0628,4.0569,4.0687,4.0692,4.0696,4.0748,4.0757,4.0765,0,0,0,0,0,4.0537,4.0581,4.0568,4.0573,4.0595,4.0621,4.0623,4.0606,4.0581,4.0602,4.0596,4.0571,4.0623,4.0598,4.0603,4.0634,4.0685,4.069,4.0695,4.0744,4.0756,4.0765,0,0,0,0,0,0,4.0586,4.0581,4.0566,4.0611,4.0617,4.0613,4.0638,4.0619,4.0631,4.0626,4.0604,4.0604,4.0643,4.0642,4.0615,4.0686,4.065,4.0656,4.0685,4.0696,4.0704,4.0703,4.0571,0,0,0,0,0,4.0602,4.0624,4.0618,4.0658,4.0662,4.065,4.066,4.0647,4.0651,4.0653,4.065,4.0655,4.0672,4.0684,4.0699,4.0748,4.0747,4.0772,4.078,4.0788,4.0793,4.0819,4.083,4.0714,4.0714,4.0714,0,0,4.0635,4.0635,4.065,4.0668,4.0671,4.0693,4.0652,4.0677,4.0694,4.0657,4.069,4.0688,4.0692,4.0735,4.0753,4.0735,4.0825,4.0794,4.08,4.0801,4.0825,4.0836,4.0846,4.0717,4.0716,4.0716,0,0,4.0706,4.0709,4.0743,4.0747,4.0753,4.0744,4.0753,4.0752,4.0749,4.0783,4.0756,4.0775,4.0805,4.0809,4.0815,4.089,4.0868,4.0896,4.0941,4.0966,4.0975,4.0983,4.101,4.102,4.0901,4.0902,4.0902,0,4.0747,4.078,4.0763,4.079,4.0799,4.0768,4.0802,4.0807,4.0817,4.0823,4.0803,4.0841,4.0841,4.0884,4.0903,4.0909,4.0917,4.0895,4.0976,4.0983,4.0991,4.1016,4.1026,4.0905,4.0905,4.0904,4.0904,0,4.0829,4.0853,4.088,4.0891,4.0903,4.0934,4.092,4.0934,4.092,4.0914,4.0949,4.0949,4.0964,4.0973,4.0959,4.1014,4.1003,4.098,4.0943,4.1005,4.1028,4.1038,4.091,4.0908,4.0907,4.0907,0,0,4.093,4.0933,4.0943,4.0948,4.0952,4.097,4.1,4.1015,4.1027,4.1036,4.1059,4.1086,4.1065,4.1072,4.1058,4.1081,4.114,4.1055,4.1054,4.107,4.1201,4.1218,4.123,4.1126,4.1128,4.1129,4.12,0,4.1,4.1052,4.1037,4.1088,4.111,4.1081,4.1107,4.1112,4.1107,4.1125,4.1119,4.1138,4.1109,4.1113,4.1134,4.1128,4.1166,4.1123,4.1147,4.1148,4.1147,4.1242,4.126,4.1327,4.1209,4.1211,4.1212,0,4.1089,4.1102,4.1155,4.1157,4.1165,4.1189,4.1202,4.1219,4.1224,4.1219,4.1228,4.121,4.1238,4.1202,4.1241,4.1213,4.1222,4.1221,4.1223,4.1224,4.1184,4.1245,4.1348,4.1358,4.1226,4.1225,4.1224,0,4.1157,4.1188,4.1224,4.1229,4.1232,4.1249,4.1251,4.1254,4.1265,4.1276,4.1283,4.1297,4.1305,4.1317,4.1303,4.1278,4.1344,4.1307,4.134,4.1341,4.1355,4.1354,4.146,4.1362,4.1361,4.1361,4.1361,0,4.1237,4.127,4.1255,4.1277,4.1314,4.1297,4.1334,4.1332,4.1336,4.1357,4.1333,4.1353,4.1334,4.1352,4.1342,4.1375,4.1379,4.1375,4.1372,4.1377,4.1378,4.1383,4.1377,4.1364,4.1363,4.1363,4.1362,0,4.1319,4.131,4.1347,4.1347,4.1348,4.1375,4.1375,4.1395,4.1389,4.1416,4.1421,4.1412,4.1432,4.142,4.144,4.1433,4.1477,4.1468,4.1476,4.1473,4.1507,4.1504,4.162,4.1634,4.1527,4.1528,4.1529,0,4.137,4.1395,4.1399,4.1412,4.1415,4.1436,4.1447,4.1432,4.1444,4.1453,4.1472,4.149,4.1504,4.1538,4.1532,4.1548,4.1538,4.1578,4.154,4.1545,4.1539,4.1537,4.154,4.1585,4.1587,4.1588,4.1588,0,4.1462,4.1456,4.1474,4.149,4.1504,4.1516,4.1525,4.1537,4.1521,4.1536,4.1557,4.1568,4.159,4.1608,4.1622,4.1623,4.1603,4.1601,4.1609,4.1614,4.1618,4.1616,4.1496,4.1598,4.1597,4.1596,4.1596,4.1595,4.153,4.1551,4.1557,4.1577,4.1583,4.1593,4.1612,4.1609,4.1627,4.1644,4.1634,4.1658,4.1663,4.168,4.1683,4.1702,4.1686,4.1698,4.1701,4.1705,4.1709,4.1616,4.1704,4.1704,4.1704,4.1704,4.1703,0,4.162,4.1623,4.1642,4.1657,4.1673,4.1654,4.1664,4.1678,4.1701,4.1707,4.1722,4.1746,4.1765,4.1761,4.1777,4.1793,4.1784,4.1798,4.1796,4.1797,4.1723,4.1714,4.1805,4.1805,4.1805,4.1804,4.1804,4.1804,4.1669,4.1704,4.17,4.1738,4.174,4.1765,4.1773,4.1782,4.1787,4.1816,4.1831,4.1829,4.1832,4.1848,4.1864,4.1862,4.1869,4.1886,4.1881,4.1812,4.1802,4.1792,4.1784,4.1888,4.1888,4.1953,4.1954,4.1955]}]]